TimeEST,TemperatureF,Dew PointF,Humidity,Sea Level PressureIn,VisibilityMPH,Wind Direction,Wind SpeedMPH,Gust SpeedMPH,PrecipitationIn,Events,Conditions,WindDirDegrees,DateUTC
12:53 AM,66.9,64.0,90,30.04,10.0,Calm,Calm,-,N/A,,Scattered Clouds,0,2012-02-18 05:53:00
1:53 AM,66.9,64.0,90,30.02,10.0,Calm,Calm,-,N/A,,Overcast,0,2012-02-18 06:53:00
2:53 AM,66.0,64.0,93,30.00,10.0,Calm,Calm,-,N/A,,Clear,0,2012-02-18 07:53:00
3:53 AM,64.9,63.0,93,29.99,7.0,Calm,Calm,-,N/A,,Clear,0,2012-02-18 08:53:00
4:53 AM,64.0,62.1,93,29.98,7.0,Calm,Calm,-,N/A,,Clear,0,2012-02-18 09:53:00
5:53 AM,64.9,62.1,90,29.99,10.0,Calm,Calm,-,N/A,,Scattered Clouds,0,2012-02-18 10:53:00
6:04 AM,64.4,62.6,94,29.98,10.0,Calm,Calm,-,N/A,,Mostly Cloudy,0,2012-02-18 11:04:00
6:53 AM,66.0,63.0,90,30.01,9.0,Calm,Calm,-,N/A,,Overcast,0,2012-02-18 11:53:00
7:43 AM,66.2,64.4,94,30.00,9.0,SE,3.5,-,N/A,,Scattered Clouds,130,2012-02-18 12:43:00
7:53 AM,66.9,64.0,90,30.01,9.0,SE,3.5,-,N/A,,Clear,130,2012-02-18 12:53:00
8:53 AM,71.1,64.9,81,30.02,10.0,SSE,5.8,-,N/A,,Clear,150,2012-02-18 13:53:00
9:53 AM,75.0,66.0,73,30.03,10.0,SSE,3.5,-,N/A,,Clear,160,2012-02-18 14:53:00
10:29 AM,75.2,66.2,73,30.02,10.0,SSE,6.9,-,N/A,,Mostly Cloudy,160,2012-02-18 15:29:00
10:53 AM,77.0,64.9,66,30.02,10.0,South,4.6,-,N/A,,Mostly Cloudy,170,2012-02-18 15:53:00
11:53 AM,79.0,64.0,60,30.00,10.0,SSW,9.2,-,N/A,,Mostly Cloudy,210,2012-02-18 16:53:00
12:08 PM,78.8,64.4,61,29.99,10.0,WSW,9.2,-,N/A,,Partly Cloudy,240,2012-02-18 17:08:00
12:53 PM,79.0,63.0,58,29.98,10.0,SW,8.1,-,N/A,,Clear,230,2012-02-18 17:53:00
1:53 PM,81.0,64.0,56,29.94,10.0,Variable,5.8,-,N/A,,Clear,0,2012-02-18 18:53:00
2:53 PM,80.1,64.9,60,29.91,10.0,SW,10.4,-,N/A,,Clear,230,2012-02-18 19:53:00
3:53 PM,78.1,64.9,64,29.91,10.0,SSW,9.2,-,N/A,,Clear,200,2012-02-18 20:53:00
4:53 PM,77.0,63.0,62,29.91,10.0,SW,9.2,-,N/A,,Clear,220,2012-02-18 21:53:00
5:53 PM,75.0,63.0,66,29.92,10.0,SW,9.2,-,N/A,,Clear,220,2012-02-18 22:53:00
6:53 PM,73.0,64.9,76,29.93,10.0,SSW,4.6,-,N/A,,Clear,210,2012-02-18 23:53:00
8:53 PM,71.1,66.0,84,29.94,10.0,South,3.5,-,N/A,,Clear,190,2012-02-19 01:53:00
9:53 PM,70.0,64.9,84,29.94,10.0,South,3.5,-,N/A,,Clear,190,2012-02-19 02:53:00
10:53 PM,70.0,64.9,84,29.94,10.0,South,3.5,-,N/A,,Clear,180,2012-02-19 03:53:00
11:53 PM,70.0,66.0,87,29.93,10.0,South,4.6,-,N/A,,Clear,180,2012-02-19 04:53:00